Terminal Aerodrome Forecast
Issued by NWS Twin Cities, MN

Home | Current Version | Previous Version | Graphics & Text | Print | Product List | Glossary On
Versions: 1 2 3 4 5 6 7 8 9 10 11 12 13 14 15 16 17 18 19 20 21 22 23 24 25 26 27 28
000
FTUS43 KMPX 260520
TAFMSP
TAF
KMSP 260520Z 2606/2712 21003KT P6SM SKC
     FM261000 20003KT P6SM SCT100
     FM261800 22008KT P6SM FEW100 SCT250
     FM270200 20003KT P6SM FEW120 BKN250=

USA.gov is the U.S. government's official web portal to all federal, state and local government web resources and services.